Location: Geçitköy
(36.7327°N, 29.8010°E)
Time: 20:14:26
(UTC+00:00)

Cosmos 2297 - Pass Details

Date: 12 January 2026
Orbit: 836 x 856 km, 71.0° (Epoch: 10 February)

Event Time Altitude Azimuth Distance (km) Brightness Sun altitude
Rises 15:48:01 0° 338° (NNW) 3,396 6.9 -8.7°
Reaches altitude 10° 15:50:27 10° 339° (NNW) 2,461 6.1 -9.1°
Maximum altitude 15:56:07 86° 67° (ENE) 850 3.7 -10.2°
Drops below altitude 10° 16:01:47 10° 158° (SSE) 2,460 6.1 -11.3°
Sets 16:04:13 0° 159° (SSE) 3,395 6.8 -11.8°
